Regional Weather Roundup
Issued by NWS

Home | Current Version | Previous Version | Graphics & Text | Print | Product List | Glossary Off
Versions: 1 2 3 4 5 6 7 8 9 10 11 12 13 14 15 16 17 18 19 20 21 22 23 24 25 26 27 28 29 30 31 32 33 34 35 36 37 38 39 40 41 42 43 44 45 46 47 48 49 50

000
ASUS43 KDTX 231610
RWRMI
MICHIGAN HOURLY REGIONAL WEATHER ROUNDUP
NATIONAL WEATHER SERVICE DETROIT/PONTIAC MI
ISSUED BY NATIONAL WEATHER SERVICE GRAND RAPIDS MI
1100 AM EST THU FEB 23 2017

NOTE: "FAIR" INDICATES FEW OR NO CLOUDS BELOW 12,000 FEET WITH NO
SIGNIFICANT WEATHER AND/OR OBSTRUCTION TO VISIBILITY.

MIZ047>049-052>055-059>063-066>070-074>076-081>083-231700-
SOUTHEAST LOWER MICHIGAN

CITY           SKY/WX    TMP DP  RH WIND       PRES   REMARKS
ADRIAN         CLOUDY    58  50  75 W9        29.74R
ALMA           CLOUDY    48  40  73 NW12      29.76R
ANN ARBOR      SUNNY     61  47  59 W12       29.71S
BAD AXE        PTSUNNY   51  42  71 NW17G25   29.71R
DETROIT CITY   MOSUNNY   61  51  70 W10       29.70R
DETROIT        PTSUNNY   62  50  64 W12       29.72R
FLINT          SUNNY     56  44  64 NW15      29.73R
GROSSE ILE     SUNNY     62  50  65 W9G16     29.71R
HILLSDALE      SUNNY     57  45  62 CALM      29.73S
HOWELL         SUNNY     58  43  57 W9        29.72R

CITY           SKY/WX    TMP DP  RH WIND       PRES   REMARKS
JACKSON        SUNNY     59  45  59 W12       29.73R
LANSING        SUNNY     54  43  66 NW10      29.75R
MASON          SUNNY     56  44  64 W13       29.74R
MONROE         SUNNY     62  52  70 W14       29.72R
MT. CLEMENS    MOSUNNY   63  48  59 W12       29.68R
PONTIAC        MOSUNNY   59  44  57 W14       29.70R
PORT HOPE        N/A     50  41  71 NW18G26   29.68R
PORT HURON     SUNNY     61  46  59 W9G17     29.70R
TRI CITIES     MOSUNNY   52  42  69 NW12      29.74R
YPSILANTI      SUNNY     63  49  60 W13       29.72R
$$
MIZ043>046-050>051-056>058-064>065-071>073-077>080-231700-
SOUTHWEST LOWER MICHIGAN

CITY           SKY/WX    TMP DP  RH WIND       PRES   REMARKS
BATTLE CREEK   SUNNY     54  45  71 NW8       29.76R
BENTON HARBOR  CLOUDY    46  40  79 VRB6      29.81R
BIG RAPIDS     CLOUDY    42  37  82 N8        29.75S
COLDWATER      SUNNY     57  47  69 W8        29.75R
HOLLAND        CLOUDY    41  38  89 NW9       29.80R
GRAND RAPIDS   CLOUDY    46  39  76 NW8       29.77R
KALAMAZOO      MOSUNNY   53  42  66 NW9       29.77R
MARSHALL       SUNNY     57  45  65 NW7       29.74R
MOUNT PLEASANT CLOUDY    46  38  73 NW10      29.75R
MUSKEGON       CLOUDY    45  39  79 N5        29.79R
STURGIS        MOSUNNY   55  46  71 NW6       29.75R
$$
MIZ016>042-231700-
NORTHERN LOWER MICHIGAN

CITY           SKY/WX    TMP DP  RH WIND       PRES   REMARKS
ALPENA         CLOUDY    42  38  85 NW9G18    29.70R
BEAVER ISLAND  CLOUDY    36  34  93 NW7       29.81R WCI  30
BELLAIRE       CLOUDY    36  34  94 N6        29.80R WCI  31
CADILLAC       CLOUDY    39  35  86 NW12G18   29.75R WCI  32
CHARLEVOIX     CLOUDY    36  36 100 NW12      29.82S WCI  28
GAYLORD        CLOUDY    35  31  85 W10G20    29.74R FOG     WCI  27
HOUGHTON LAKE  CLOUDY    40  35  83 NW8       29.73R WCI  34
MANISTEE       CLOUDY    38  33  82 NW13      29.80R WCI  30
OSCODA         CLOUDY    46  39  77 W16G23    29.69R
PELLSTON       CLOUDY    35  32  88 W10       29.78R WCI  27
TRAVERSE CITY  CLOUDY    38  33  82 N10G22    29.79R WCI  31
LUDINGTON      CLOUDY    38  34  84 N10G22    29.80S WCI  31
$$
MIZ007>008-015-231700-
EASTERN UPPER MICHIGAN

CITY           SKY/WX    TMP DP  RH WIND       PRES   REMARKS
KINROSS        CLOUDY    35  32  88 NW14      29.73R WCI  26
MACKINAC ISLAN CLOUDY    34  34 100 NW12      29.75R WCI  25
NEWBERRY       CLOUDY    34  32  93 NW10G17   29.77R WCI  26
S. S. MARIE    CLOUDY    38  33  82 W7        29.71R WCI  33
$$
MIZ004>006-011>014-085-231700-
CENTRAL UPPER MICHIGAN

CITY           SKY/WX    TMP DP  RH WIND       PRES   REMARKS
MANISTIQUE     CLOUDY    35  32  90 NW10G17   29.82R WCI  27
ESCANABA       CLOUDY    35  26  69 NW10      29.85R WCI  27
MENOMINEE      CLOUDY    36  28  73 N10G17    29.85S WCI  28
SAWYER-GWINN   CLOUDY    30  27  86 N14G21    29.84R WCI  20
$$
MIZ001>003-009>011-084-231700-
WESTERN UPPER MICHIGAN

CITY           SKY/WX    TMP DP  RH WIND       PRES   REMARKS
IRON MOUNTAIN  CLOUDY    33  24  69 N14       29.84S WCI  23
HOUGHTON       CLOUDY    33  22  63 NW13      29.85S WCI  24
COPPER HARBOR    N/A     35  24  64 N14       29.85F WCI  26
IRONWOOD       CLOUDY    31  26  82 NW8       29.90R WCI  23
$$

ABBREVIATIONS USED IN REMARKS
   TC - TEMPERATURE IN CELSIUS
  WCI - WIND CHILL INDEX
   HX - HEAT INDEX
  VSB - VISIBILITY





USA.gov is the U.S. government's official web portal to all federal, state and local government web resources and services.